Time,TemperatureF,DewpointF,PressureIn,WindDirection,WindDirectionDegrees,WindSpeedMPH,WindSpeedGustMPH,Humidity,HourlyPrecipIn,Conditions,Clouds,dailyrainin,SolarRadiationWatts/m^2,SoftwareType,DateUTC
2013-06-06 00:03:00,57.5,48.5,30.10,NNE,24,5.4,11.5,72,0.00,CLR,,0.00,0.0,WeatherDisplay:10.37,2013-06-05 22:03:00,
2013-06-06 00:08:00,57.4,48.8,30.10,NE,44,1.7,3.5,73,0.00,CLR,,0.00,0.0,WeatherDisplay:10.37,2013-06-05 22:08:00,
2013-06-06 00:13:00,57.2,48.6,30.10,ENE,67,5.0,8.1,73,0.00,CLR,,0.00,0.0,WeatherDisplay:10.37,2013-06-05 22:13:00,
2013-06-06 00:18:00,57.1,48.1,30.10,NNE,27,8.4,10.4,72,0.00,CLR,,0.00,0.0,WeatherDisplay:10.37,2013-06-05 22:18:00,
2013-06-06 00:23:00,57.0,48.4,30.10,NE,37,3.9,4.0,73,0.00,CLR,,0.00,0.0,WeatherDisplay:10.37,2013-06-05 22:23:00,
2013-06-06 00:28:00,56.8,47.8,30.10,NE,43,3.2,4.0,72,0.00,CLR,,0.00,0.0,WeatherDisplay:10.37,2013-06-05 22:28:00,
2013-06-06 00:33:00,56.6,48.0,30.10,NE,45,5.9,6.9,73,0.00,CLR,,0.00,0.0,WeatherDisplay:10.37,2013-06-05 22:33:00,
2013-06-06 00:38:00,56.4,47.8,30.10,ENE,62,4.4,6.0,73,0.00,CLR,,0.00,0.0,WeatherDisplay:10.37,2013-06-05 22:38:00,
2013-06-06 00:46:00,56.2,47.6,30.10,NE,51,3.1,5.8,73,0.00,CLR,,0.00,0.0,WeatherDisplay:10.37,2013-06-05 22:46:00,
2013-06-06 00:51:00,55.9,47.7,30.10,NE,45,2.0,8.1,74,0.00,CLR,,0.00,0.0,WeatherDisplay:10.37,2013-06-05 22:51:00,
2013-06-06 00:56:00,55.7,47.9,30.10,NNE,22,5.3,11.5,75,0.00,CLR,,0.00,0.0,WeatherDisplay:10.37,2013-06-05 22:56:00,
2013-06-06 01:01:00,55.6,47.8,30.10,ENE,65,6.6,10.4,75,0.00,CLR,,0.00,0.0,WeatherDisplay:10.37,2013-06-05 23:01:00,
2013-06-06 01:06:00,55.5,48.0,30.10,NNE,24,3.1,7.0,76,0.00,CLR,,0.00,0.0,WeatherDisplay:10.37,2013-06-05 23:06:00,
2013-06-06 01:11:00,55.3,47.8,30.10,NE,45,5.4,10.4,76,0.00,CLR,,0.00,0.0,WeatherDisplay:10.37,2013-06-05 23:11:00,
2013-06-06 01:16:00,55.1,48.0,30.10,NE,42,5.1,9.2,77,0.00,CLR,,0.00,0.0,WeatherDisplay:10.37,2013-06-05 23:16:00,
2013-06-06 01:21:00,55.0,48.2,30.10,NE,45,2.3,5.0,78,0.00,CLR,,0.00,0.0,WeatherDisplay:10.37,2013-06-05 23:21:00,
2013-06-06 01:26:00,54.8,48.1,30.10,NE,56,5.4,12.0,78,0.00,CLR,,0.00,0.0,WeatherDisplay:10.37,2013-06-05 23:26:00,
2013-06-06 01:31:00,54.7,48.3,30.10,NE,49,3.5,6.0,79,0.00,CLR,,0.00,0.0,WeatherDisplay:10.37,2013-06-05 23:31:00,
2013-06-06 01:36:00,54.5,48.4,30.10,ENE,78,4.2,8.0,80,0.00,CLR,,0.00,0.0,WeatherDisplay:10.37,2013-06-05 23:36:00,
2013-06-06 01:41:00,54.4,48.3,30.10,NE,53,3.9,6.9,80,0.00,CLR,,0.00,0.0,WeatherDisplay:10.37,2013-06-05 23:41:00,
2013-06-06 01:46:00,54.3,48.6,30.10,NE,43,4.8,8.0,81,0.00,CLR,,0.00,0.0,WeatherDisplay:10.37,2013-06-05 23:46:00,
2013-06-06 01:51:00,54.2,48.5,30.10,NE,44,5.0,10.4,81,0.00,CLR,,0.00,0.0,WeatherDisplay:10.37,2013-06-05 23:51:00,
2013-06-06 01:56:00,54.1,48.4,30.10,ENE,63,6.0,8.1,81,0.00,CLR,,0.00,0.0,WeatherDisplay:10.37,2013-06-05 23:56:00,
2013-06-06 02:01:00,54.0,48.6,30.10,NE,51,3.3,5.8,82,0.00,CLR,,0.00,0.0,WeatherDisplay:10.37,2013-06-06 00:01:00,
2013-06-06 02:06:00,53.9,48.5,30.10,ENE,62,0.9,3.5,82,0.00,CLR,,0.00,0.0,WeatherDisplay:10.37,2013-06-06 00:06:00,
2013-06-06 02:11:00,53.8,48.4,30.10,NE,51,6.0,11.5,82,0.00,CLR,,0.00,0.0,WeatherDisplay:10.37,2013-06-06 00:11:00,
2013-06-06 02:16:00,53.8,48.4,30.10,NE,35,3.4,5.8,82,0.00,CLR,,0.00,0.0,WeatherDisplay:10.37,2013-06-06 00:16:00,
2013-06-06 02:21:00,53.8,48.4,30.10,NNE,32,3.8,7.0,82,0.00,CLR,,0.00,0.0,WeatherDisplay:10.37,2013-06-06 00:21:00,
2013-06-06 02:26:00,53.7,48.3,30.10,NE,53,4.3,6.9,82,0.00,CLR,,0.00,0.0,WeatherDisplay:10.37,2013-06-06 00:26:00,
2013-06-06 02:31:00,53.7,48.3,30.10,NE,45,3.5,8.1,82,0.00,CLR,,0.00,0.0,WeatherDisplay:10.37,2013-06-06 00:31:00,
2013-06-06 02:36:00,53.7,48.3,30.10,NE,42,2.5,6.9,82,0.00,CLR,,0.00,0.0,WeatherDisplay:10.37,2013-06-06 00:36:00,
2013-06-06 02:41:00,53.6,48.2,30.10,NE,45,3.8,6.9,82,0.00,CLR,,0.00,0.0,WeatherDisplay:10.37,2013-06-06 00:41:00,
2013-06-06 02:46:00,53.5,48.4,30.10,NNE,31,2.8,9.2,83,0.00,CLR,,0.00,0.0,WeatherDisplay:10.37,2013-06-06 00:46:00,
2013-06-06 02:51:00,53.5,48.4,30.10,NE,35,4.7,6.9,83,0.00,CLR,,0.00,0.0,WeatherDisplay:10.37,2013-06-06 00:51:00,
2013-06-06 02:56:00,53.4,48.3,30.10,NE,35,3.1,6.9,83,0.00,CLR,,0.00,0.0,WeatherDisplay:10.37,2013-06-06 00:56:00,
2013-06-06 03:01:00,53.3,48.2,30.10,ENE,58,3.0,5.8,83,0.00,CLR,,0.00,0.0,WeatherDisplay:10.37,2013-06-06 01:01:00,
2013-06-06 03:06:00,53.3,48.2,30.10,NNE,30,3.5,8.1,83,0.00,CLR,,0.00,0.0,WeatherDisplay:10.37,2013-06-06 01:06:00,
2013-06-06 03:11:00,53.2,48.2,30.10,NE,51,7.2,11.5,83,0.00,CLR,,0.00,0.0,WeatherDisplay:10.37,2013-06-06 01:11:00,
2013-06-06 03:16:00,53.2,48.2,30.10,NE,45,4.3,8.1,83,0.00,CLR,,0.00,0.0,WeatherDisplay:10.37,2013-06-06 01:16:00,
2013-06-06 03:21:00,53.1,48.1,30.10,NE,48,3.9,6.9,83,0.00,CLR,,0.00,0.0,WeatherDisplay:10.37,2013-06-06 01:21:00,
2013-06-06 03:26:00,53.0,48.0,30.10,NE,46,2.9,11.5,83,0.00,CLR,,0.00,0.0,WeatherDisplay:10.37,2013-06-06 01:26:00,
2013-06-06 03:31:00,52.9,47.9,30.10,NE,36,5.2,6.9,83,0.00,CLR,,0.00,0.0,WeatherDisplay:10.37,2013-06-06 01:31:00,
2013-06-06 03:36:00,52.8,48.1,30.09,NE,51,4.0,5.8,84,0.00,CLR,,0.00,0.0,WeatherDisplay:10.37,2013-06-06 01:36:00,
2013-06-06 03:41:00,52.7,48.0,30.09,NE,38,5.3,9.2,84,0.00,CLR,,0.00,0.0,WeatherDisplay:10.37,2013-06-06 01:41:00,
2013-06-06 03:46:00,52.6,47.9,30.09,NE,40,1.0,3.5,84,0.00,CLR,,0.00,0.0,WeatherDisplay:10.37,2013-06-06 01:46:00,
2013-06-06 03:51:00,52.6,47.9,30.09,NE,36,3.8,10.0,84,0.00,CLR,,0.00,0.0,WeatherDisplay:10.37,2013-06-06 01:51:00,
2013-06-06 03:56:00,52.6,48.2,30.10,NE,40,2.8,7.0,85,0.00,CLR,,0.00,0.0,WeatherDisplay:10.37,2013-06-06 01:56:00,
2013-06-06 04:01:00,52.5,48.1,30.09,NE,37,3.9,5.8,85,0.00,CLR,,0.00,0.0,WeatherDisplay:10.37,2013-06-06 02:01:00,
2013-06-06 04:06:00,52.4,48.0,30.10,NE,34,3.3,8.0,85,0.00,CLR,,0.00,0.0,WeatherDisplay:10.37,2013-06-06 02:06:00,
2013-06-06 04:11:00,52.4,48.0,30.09,NE,41,5.5,9.2,85,0.00,CLR,,0.00,0.0,WeatherDisplay:10.37,2013-06-06 02:11:00,
2013-06-06 04:16:00,52.4,48.0,30.09,NE,50,3.3,4.6,85,0.00,CLR,,0.00,0.0,WeatherDisplay:10.37,2013-06-06 02:16:00,
2013-06-06 04:21:00,52.4,48.3,30.09,ENE,74,2.6,3.5,86,0.00,CLR,,0.00,0.0,WeatherDisplay:10.37,2013-06-06 02:21:00,
2013-06-06 04:26:00,52.3,48.2,30.09,NNE,32,2.5,4.6,86,0.00,CLR,,0.00,0.0,WeatherDisplay:10.37,2013-06-06 02:26:00,
2013-06-06 04:31:00,52.3,48.2,30.09,NE,38,4.1,5.8,86,0.00,CLR,,0.00,0.0,WeatherDisplay:10.37,2013-06-06 02:31:00,
2013-06-06 04:36:00,52.3,48.2,30.09,NE,38,0.1,3.0,86,0.00,CLR,,0.00,0.0,WeatherDisplay:10.37,2013-06-06 02:36:00,
2013-06-06 04:41:00,52.3,48.2,30.09,NE,38,0.7,3.5,86,0.00,CLR,,0.00,0.0,WeatherDisplay:10.37,2013-06-06 02:41:00,
2013-06-06 04:46:00,52.3,48.2,30.09,NE,42,2.6,6.9,86,0.00,CLR,,0.00,0.0,WeatherDisplay:10.37,2013-06-06 02:46:00,
2013-06-06 04:51:00,52.2,48.4,30.10,NE,42,2.6,5.0,87,0.00,CLR,,0.00,0.0,WeatherDisplay:10.37,2013-06-06 02:51:00,
2013-06-06 04:56:00,52.3,48.5,30.10,NE,39,4.2,8.1,87,0.00,CLR,,0.00,0.0,WeatherDisplay:10.37,2013-06-06 02:56:00,
2013-06-06 05:01:00,52.3,48.5,30.10,NE,45,5.1,8.1,87,0.00,CLR,,0.00,0.0,WeatherDisplay:10.37,2013-06-06 03:01:00,
2013-06-06 05:06:00,52.3,48.5,30.10,NE,36,2.6,3.5,87,0.00,CLR,,0.00,0.0,WeatherDisplay:10.37,2013-06-06 03:06:00,
2013-06-06 05:11:00,52.2,48.4,30.10,NE,43,2.2,3.5,87,0.00,CLR,,0.00,0.0,WeatherDisplay:10.37,2013-06-06 03:11:00,
2013-06-06 05:16:00,52.2,48.4,30.10,NE,51,1.1,3.5,87,0.00,CLR,,0.00,0.0,WeatherDisplay:10.37,2013-06-06 03:16:00,
2013-06-06 05:21:00,52.1,48.3,30.10,NE,42,1.0,4.6,87,0.00,CLR,,0.00,0.0,WeatherDisplay:10.37,2013-06-06 03:21:00,
2013-06-06 05:26:00,52.1,48.6,30.10,NE,44,2.7,5.8,88,0.00,CLR,,0.00,0.0,WeatherDisplay:10.37,2013-06-06 03:26:00,
2013-06-06 05:31:00,52.0,48.5,30.10,NNE,32,2.7,6.9,88,0.00,CLR,,0.00,5.0,WeatherDisplay:10.37,2013-06-06 03:31:00,
2013-06-06 05:36:00,52.0,48.5,30.10,NNE,23,1.6,4.6,88,0.00,CLR,,0.00,7.0,WeatherDisplay:10.37,2013-06-06 03:36:00,
2013-06-06 05:41:00,51.9,48.4,30.10,NNE,24,1.9,3.5,88,0.00,CLR,,0.00,9.0,WeatherDisplay:10.37,2013-06-06 03:41:00,
2013-06-06 05:46:00,51.9,48.4,30.10,NE,44,4.8,8.1,88,0.00,CLR,,0.00,12.0,WeatherDisplay:10.37,2013-06-06 03:46:00,
2013-06-06 05:51:00,51.8,48.3,30.10,NE,53,1.3,3.5,88,0.00,CLR,,0.00,16.0,WeatherDisplay:10.37,2013-06-06 03:51:00,
2013-06-06 05:56:00,51.9,48.4,30.10,NE,42,3.9,6.9,88,0.00,CLR,,0.00,19.0,WeatherDisplay:10.37,2013-06-06 03:56:00,
2013-06-06 06:01:00,51.9,48.4,30.10,NNE,15,3.7,5.8,88,0.00,CLR,,0.00,23.0,WeatherDisplay:10.37,2013-06-06 04:01:00,
2013-06-06 06:06:00,52.0,48.5,30.10,NNE,22,5.0,5.0,88,0.00,CLR,,0.00,28.0,WeatherDisplay:10.37,2013-06-06 04:06:00,
2013-06-06 06:11:00,52.1,48.6,30.10,NE,42,2.9,5.8,88,0.00,CLR,,0.00,35.0,WeatherDisplay:10.37,2013-06-06 04:11:00,
2013-06-06 06:16:00,52.3,48.8,30.10,NE,42,2.5,5.0,88,0.00,CLR,,0.00,40.0,WeatherDisplay:10.37,2013-06-06 04:16:00,
2013-06-06 06:21:00,52.4,48.9,30.10,NE,34,8.1,9.2,88,0.00,CLR,,0.00,46.0,WeatherDisplay:10.37,2013-06-06 04:21:00,
2013-06-06 06:27:00,52.5,49.0,30.10,NE,38,2.7,3.5,88,0.00,OVC,,0.00,49.0,WeatherDisplay:10.37,2013-06-06 04:27:00,
2013-06-06 06:32:00,52.7,48.9,30.10,NE,51,3.3,5.8,87,0.00,OVC,,0.00,54.0,WeatherDisplay:10.37,2013-06-06 04:32:00,
2013-06-06 06:37:00,52.8,49.0,30.10,ENE,57,4.5,6.9,87,0.00,OVC,,0.00,62.0,WeatherDisplay:10.37,2013-06-06 04:37:00,
2013-06-06 06:42:00,53.0,49.2,30.10,ENE,70,2.6,5.8,87,0.00,OVC,,0.00,69.0,WeatherDisplay:10.37,2013-06-06 04:42:00,
2013-06-06 06:47:00,53.1,49.0,30.10,NE,47,1.0,5.0,86,0.00,OVC,,0.00,72.0,WeatherDisplay:10.37,2013-06-06 04:47:00,
2013-06-06 06:52:00,53.2,49.1,30.10,NE,49,1.7,4.6,86,0.00,OVC,,0.00,77.0,WeatherDisplay:10.37,2013-06-06 04:52:00,
2013-06-06 06:57:00,53.4,49.3,30.10,ENE,67,4.9,11.5,86,0.00,OVC,,0.00,83.0,WeatherDisplay:10.37,2013-06-06 04:57:00,
2013-06-06 07:02:00,53.5,49.4,30.10,NE,51,5.6,6.9,86,0.00,OVC,,0.00,88.0,WeatherDisplay:10.37,2013-06-06 05:02:00,
2013-06-06 07:07:00,53.6,49.5,30.10,NE,39,5.0,8.1,86,0.00,OVC,,0.00,95.0,WeatherDisplay:10.37,2013-06-06 05:07:00,
2013-06-06 07:12:00,53.6,49.5,30.10,NE,41,2.3,6.0,86,0.00,OVC,,0.00,113.0,WeatherDisplay:10.37,2013-06-06 05:12:00,
2013-06-06 07:17:00,53.7,49.6,30.10,ENE,63,5.9,11.5,86,0.00,OVC,,0.00,100.0,WeatherDisplay:10.37,2013-06-06 05:17:00,
2013-06-06 07:22:00,53.8,49.7,30.10,ENE,70,5.4,8.1,86,0.00,BKN,,0.00,160.0,WeatherDisplay:10.37,2013-06-06 05:22:00,
2013-06-06 07:27:00,53.9,49.5,30.10,ENE,70,6.9,11.5,85,0.00,BKN,,0.00,179.0,WeatherDisplay:10.37,2013-06-06 05:27:00,
2013-06-06 07:32:00,54.2,50.1,30.10,NE,48,0.7,8.1,86,0.00,BKN,,0.00,192.0,WeatherDisplay:10.37,2013-06-06 05:32:00,
2013-06-06 07:37:00,54.4,50.0,30.10,NE,38,4.8,9.0,85,0.00,OVC,,0.00,114.0,WeatherDisplay:10.37,2013-06-06 05:37:00,
2013-06-06 07:42:00,54.3,49.9,30.10,NNE,30,5.5,10.4,85,0.00,OVC,,0.00,118.0,WeatherDisplay:10.37,2013-06-06 05:42:00,
2013-06-06 07:47:00,54.4,50.3,30.10,NNE,32,4.4,11.5,86,0.00,BKN,,0.00,185.0,WeatherDisplay:10.37,2013-06-06 05:47:00,
2013-06-06 07:52:00,54.7,50.6,30.11,NE,38,4.1,6.0,86,0.00,BKN,,0.00,206.0,WeatherDisplay:10.37,2013-06-06 05:52:00,
2013-06-06 07:57:00,55.0,50.6,30.11,NE,49,6.3,8.1,85,0.00,BKN,,0.00,241.0,WeatherDisplay:10.37,2013-06-06 05:57:00,
2013-06-06 08:02:00,55.0,50.6,30.11,ENE,67,1.4,3.5,85,0.00,BKN,,0.00,265.0,WeatherDisplay:10.37,2013-06-06 06:02:00,
2013-06-06 08:07:00,55.2,50.7,30.11,NE,56,7.4,11.5,85,0.00,BKN,,0.00,276.0,WeatherDisplay:10.37,2013-06-06 06:07:00,
2013-06-06 08:12:00,55.4,50.9,30.11,ENE,57,2.4,5.8,85,0.00,BKN,,0.00,283.0,WeatherDisplay:10.37,2013-06-06 06:12:00,
2013-06-06 08:17:00,55.6,50.8,30.11,NE,47,5.5,8.1,84,0.00,BKN,,0.00,292.0,WeatherDisplay:10.37,2013-06-06 06:17:00,
2013-06-06 08:22:00,55.8,51.0,30.11,NE,50,7.4,11.5,84,0.00,BKN,,0.00,322.0,WeatherDisplay:10.37,2013-06-06 06:22:00,
2013-06-06 08:27:00,55.9,51.1,30.11,NE,47,5.5,5.8,84,0.00,BKN,,0.00,325.0,WeatherDisplay:10.37,2013-06-06 06:27:00,
2013-06-06 08:32:00,56.1,51.3,30.11,East,80,7.0,11.5,84,0.00,BKN,,0.00,330.0,WeatherDisplay:10.37,2013-06-06 06:32:00,
2013-06-06 08:37:00,56.4,51.6,30.11,ENE,64,7.5,11.5,84,0.00,BKN,,0.00,353.0,WeatherDisplay:10.37,2013-06-06 06:37:00,
2013-06-06 08:42:00,56.6,51.5,30.11,ENE,72,3.5,5.8,83,0.00,BKN,,0.00,367.0,WeatherDisplay:10.37,2013-06-06 06:42:00,
2013-06-06 08:47:00,57.1,52.0,30.11,NE,52,4.9,6.9,83,0.00,BKN,,0.00,383.0,WeatherDisplay:10.37,2013-06-06 06:47:00,
2013-06-06 08:52:00,57.4,51.9,30.11,NE,42,7.0,11.5,82,0.00,BKN,,0.00,383.0,WeatherDisplay:10.37,2013-06-06 06:52:00,
2013-06-06 08:57:00,57.5,52.0,30.11,ENE,67,5.4,11.5,82,0.00,BKN,,0.00,397.0,WeatherDisplay:10.37,2013-06-06 06:57:00,
2013-06-06 09:02:00,57.7,52.2,30.11,ENE,65,5.4,8.1,82,0.00,BKN,,0.00,401.0,WeatherDisplay:10.37,2013-06-06 07:02:00,
2013-06-06 09:07:00,58.0,52.5,30.11,ENE,57,4.1,11.5,82,0.00,BKN,,0.00,420.0,WeatherDisplay:10.37,2013-06-06 07:07:00,
2013-06-06 09:12:00,58.4,52.9,30.11,ENE,66,4.8,6.9,82,0.00,SCT,,0.00,427.0,WeatherDisplay:10.37,2013-06-06 07:12:00,
2013-06-06 09:17:00,58.8,53.0,30.11,ENE,63,3.7,3.7,81,0.00,SCT,,0.00,450.0,WeatherDisplay:10.37,2013-06-06 07:17:00,
2013-06-06 09:22:00,59.3,53.4,30.11,NNE,22,2.8,8.1,81,0.00,SCT,,0.00,450.0,WeatherDisplay:10.37,2013-06-06 07:22:00,
2013-06-06 09:28:00,59.7,53.5,30.11,NE,38,5.2,5.8,80,0.00,SCT,,0.00,473.0,WeatherDisplay:10.37,2013-06-06 07:28:00,
2013-06-06 09:33:00,60.1,53.9,30.11,NE,40,2.8,5.8,80,0.00,SCT,,0.00,494.0,WeatherDisplay:10.37,2013-06-06 07:33:00,
2013-06-06 09:38:00,60.1,53.5,30.11,ENE,60,3.6,5.0,79,0.00,SCT,,0.00,501.0,WeatherDisplay:10.37,2013-06-06 07:38:00,
2013-06-06 09:43:00,60.5,53.9,30.11,NE,45,3.6,8.1,79,0.00,SCT,,0.00,508.0,WeatherDisplay:10.37,2013-06-06 07:43:00,
2013-06-06 09:48:00,61.1,54.5,30.11,ENE,65,1.1,3.5,79,0.00,SCT,,0.00,522.0,WeatherDisplay:10.37,2013-06-06 07:48:00,
2013-06-06 09:53:00,61.3,53.6,30.11,ENE,62,3.1,8.1,76,0.00,SCT,,0.00,524.0,WeatherDisplay:10.37,2013-06-06 07:53:00,
2013-06-06 09:58:00,61.4,54.1,30.11,ENE,61,6.8,11.5,77,0.00,SCT,,0.00,534.0,WeatherDisplay:10.37,2013-06-06 07:58:00,
2013-06-06 10:06:00,61.4,53.7,30.11,ENE,64,4.0,6.0,76,0.00,SCT,,0.00,531.0,WeatherDisplay:10.37,2013-06-06 08:06:00,
2013-06-06 10:11:00,62.2,54.5,30.11,North,1,2.2,3.5,76,0.00,SCT,,0.00,578.0,WeatherDisplay:10.37,2013-06-06 08:11:00,
2013-06-06 10:16:00,62.5,54.1,30.11,ENE,72,6.7,11.5,74,0.00,SCT,,0.00,596.0,WeatherDisplay:10.37,2013-06-06 08:16:00,
2013-06-06 10:21:00,62.5,54.1,30.11,ENE,62,6.3,12.0,74,0.00,SCT,,0.00,615.0,WeatherDisplay:10.37,2013-06-06 08:21:00,
2013-06-06 10:26:00,62.8,54.4,30.11,ENE,63,7.7,10.4,74,0.00,SCT,,0.00,615.0,WeatherDisplay:10.37,2013-06-06 08:26:00,
2013-06-06 10:31:00,63.2,54.4,30.11,NE,45,5.8,11.5,73,0.00,SCT,,0.00,631.0,WeatherDisplay:10.37,2013-06-06 08:31:00,
2013-06-06 10:36:00,63.5,54.3,30.11,NNE,24,4.6,5.8,72,0.00,SCT,,0.00,636.0,WeatherDisplay:10.37,2013-06-06 08:36:00,
2013-06-06 10:41:00,64.0,55.2,30.11,ENE,65,2.3,5.0,73,0.00,SCT,,0.00,649.0,WeatherDisplay:10.37,2013-06-06 08:41:00,
2013-06-06 10:46:00,64.4,54.8,30.11,ENE,62,4.3,5.0,71,0.00,SCT,,0.00,666.0,WeatherDisplay:10.37,2013-06-06 08:46:00,
2013-06-06 10:51:00,64.8,55.2,30.11,NE,36,7.0,11.5,71,0.00,SCT,,0.00,661.0,WeatherDisplay:10.37,2013-06-06 08:51:00,
2013-06-06 10:56:00,64.9,55.3,30.11,ENE,57,5.3,6.9,71,0.00,SCT,,0.00,680.0,WeatherDisplay:10.37,2013-06-06 08:56:00,
2013-06-06 11:01:00,64.8,54.8,30.11,NE,46,5.1,8.1,70,0.00,SCT,,0.00,696.0,WeatherDisplay:10.37,2013-06-06 09:01:00,
2013-06-06 11:06:00,64.7,54.7,30.11,NNE,29,7.9,11.5,70,0.00,SCT,,0.00,710.0,WeatherDisplay:10.37,2013-06-06 09:06:00,
2013-06-06 11:11:00,65.1,55.1,30.11,NNE,16,7.5,11.5,70,0.00,SCT,,0.00,719.0,WeatherDisplay:10.37,2013-06-06 09:11:00,
2013-06-06 11:16:00,65.5,55.4,30.11,ENE,70,6.7,11.5,70,0.00,SCT,,0.00,726.0,WeatherDisplay:10.37,2013-06-06 09:16:00,
2013-06-06 11:21:00,65.5,55.0,30.11,North,7,5.2,12.7,69,0.00,SCT,,0.00,731.0,WeatherDisplay:10.37,2013-06-06 09:21:00,
2013-06-06 11:26:00,65.8,54.9,30.11,NE,40,4.6,5.8,68,0.00,SCT,,0.00,745.0,WeatherDisplay:10.37,2013-06-06 09:26:00,
2013-06-06 11:31:00,66.1,54.8,30.11,NE,53,5.8,11.5,67,0.00,SCT,,0.00,752.0,WeatherDisplay:10.37,2013-06-06 09:31:00,
2013-06-06 11:36:00,66.0,54.7,30.11,NE,49,8.0,11.5,67,0.00,SCT,,0.00,766.0,WeatherDisplay:10.37,2013-06-06 09:36:00,
2013-06-06 11:41:00,66.1,54.8,30.11,NNE,31,6.1,10.4,67,0.00,SCT,,0.00,766.0,WeatherDisplay:10.37,2013-06-06 09:41:00,
2013-06-06 11:46:00,66.4,55.1,30.11,NNE,16,4.5,7.0,67,0.00,SCT,,0.00,779.0,WeatherDisplay:10.37,2013-06-06 09:46:00,
2013-06-06 11:51:00,66.8,55.1,30.11,NE,35,4.3,10.0,66,0.00,SCT,,0.00,786.0,WeatherDisplay:10.37,2013-06-06 09:51:00,
2013-06-06 11:56:00,66.9,55.1,30.11,NNE,18,5.6,10.4,66,0.00,SCT,,0.00,793.0,WeatherDisplay:10.37,2013-06-06 09:56:00,
2013-06-06 12:01:00,67.3,54.7,30.11,NE,42,5.2,11.5,64,0.00,SCT,,0.00,798.0,WeatherDisplay:10.37,2013-06-06 10:01:00,
2013-06-06 12:06:00,67.3,54.3,30.11,ENE,75,7.1,11.5,63,0.00,SCT,,0.00,805.0,WeatherDisplay:10.37,2013-06-06 10:06:00,
2013-06-06 12:11:00,67.3,54.3,30.11,ENE,74,7.0,12.7,63,0.00,SCT,,0.00,807.0,WeatherDisplay:10.37,2013-06-06 10:11:00,
2013-06-06 12:16:00,67.5,54.0,30.11,ENE,58,4.6,9.2,62,0.00,SCT,,0.00,819.0,WeatherDisplay:10.37,2013-06-06 10:16:00,
2013-06-06 12:21:00,67.7,54.2,30.11,NE,55,9.7,11.5,62,0.00,SCT,,0.00,714.0,WeatherDisplay:10.37,2013-06-06 10:21:00,
2013-06-06 12:26:00,68.2,54.7,30.11,NE,55,5.3,6.9,62,0.00,SCT,,0.00,831.0,WeatherDisplay:10.37,2013-06-06 10:26:00,
2013-06-06 12:31:00,68.8,55.2,30.11,NNE,19,5.1,8.0,62,0.00,SCT,,0.00,833.0,WeatherDisplay:10.37,2013-06-06 10:31:00,
2013-06-06 12:36:00,68.6,55.0,30.11,NNE,26,4.9,8.1,62,0.00,SCT,,0.00,842.0,WeatherDisplay:10.37,2013-06-06 10:36:00,
2013-06-06 12:41:00,68.5,54.0,30.11,NE,53,8.3,12.7,60,0.00,SCT,,0.00,840.0,WeatherDisplay:10.37,2013-06-06 10:41:00,
2013-06-06 12:46:00,69.1,55.1,30.11,NNE,13,4.7,8.1,61,0.00,SCT,,0.00,847.0,WeatherDisplay:10.37,2013-06-06 10:46:00,
2013-06-06 12:51:00,69.4,54.9,30.11,North,10,5.3,7.0,60,0.00,SCT,,0.00,853.0,WeatherDisplay:10.37,2013-06-06 10:51:00,
2013-06-06 12:56:00,69.7,55.2,30.11,NNE,30,6.4,9.2,60,0.00,SCT,,0.00,856.0,WeatherDisplay:10.37,2013-06-06 10:56:00,
2013-06-06 13:01:00,69.9,54.9,30.11,NE,45,4.1,6.9,59,0.00,SCT,,0.00,858.0,WeatherDisplay:10.37,2013-06-06 11:01:00,
2013-06-06 13:06:00,69.9,54.9,30.11,NNE,17,7.5,7.5,59,0.00,FEW,,0.00,861.0,WeatherDisplay:10.37,2013-06-06 11:06:00,
2013-06-06 13:11:00,70.0,55.0,30.11,East,80,7.9,11.5,59,0.00,FEW,,0.00,867.0,WeatherDisplay:10.37,2013-06-06 11:11:00,
2013-06-06 13:16:00,70.0,55.0,30.11,North,6,7.3,8.1,59,0.00,FEW,,0.00,865.0,WeatherDisplay:10.37,2013-06-06 11:16:00,
2013-06-06 13:21:00,70.8,55.3,30.11,North,351,3.0,3.5,58,0.00,FEW,,0.00,868.0,WeatherDisplay:10.37,2013-06-06 11:21:00,
2013-06-06 13:26:00,70.8,54.8,30.11,NNE,12,5.5,10.4,57,0.00,FEW,,0.00,863.0,WeatherDisplay:10.37,2013-06-06 11:26:00,
2013-06-06 13:31:00,71.2,54.7,30.11,North,9,5.2,6.9,56,0.00,FEW,,0.00,858.0,WeatherDisplay:10.37,2013-06-06 11:31:00,
2013-06-06 13:36:00,71.2,54.2,30.11,NNE,19,4.6,6.9,55,0.00,BKN,,0.00,555.0,WeatherDisplay:10.37,2013-06-06 11:36:00,
2013-06-06 13:41:00,71.4,53.9,30.11,ENE,73,4.9,8.1,54,0.00,FEW,,0.00,874.0,WeatherDisplay:10.37,2013-06-06 11:41:00,
2013-06-06 13:46:00,71.8,54.2,30.11,East,95,5.1,9.2,54,0.00,SCT,,0.00,872.0,WeatherDisplay:10.37,2013-06-06 11:46:00,
2013-06-06 13:51:00,72.7,55.6,30.11,East,84,3.0,4.0,55,0.00,FEW,,0.00,882.0,WeatherDisplay:10.37,2013-06-06 11:51:00,
2013-06-06 13:56:00,72.4,54.3,30.11,ENE,71,5.8,11.5,53,0.00,FEW,,0.00,882.0,WeatherDisplay:10.37,2013-06-06 11:56:00,
2013-06-06 14:01:00,72.1,54.0,30.11,North,351,8.0,16.1,53,0.00,FEW,,0.00,879.0,WeatherDisplay:10.37,2013-06-06 12:01:00,
2013-06-06 14:06:00,71.8,53.7,30.11,ENE,71,7.9,11.5,53,0.00,FEW,,0.00,872.0,WeatherDisplay:10.37,2013-06-06 12:06:00,
2013-06-06 14:11:00,72.3,54.2,30.11,NE,47,5.6,10.4,53,0.00,FEW,,0.00,858.0,WeatherDisplay:10.37,2013-06-06 12:11:00,
2013-06-06 14:16:00,72.7,54.0,30.11,NNE,24,9.0,11.5,52,0.00,FEW,,0.00,863.0,WeatherDisplay:10.37,2013-06-06 12:16:00,
2013-06-06 14:21:00,72.5,53.9,30.11,ENE,59,8.1,13.8,52,0.00,FEW,,0.00,863.0,WeatherDisplay:10.37,2013-06-06 12:21:00,
2013-06-06 14:26:00,73.1,54.4,30.11,NNE,22,6.4,12.0,52,0.00,FEW,,0.00,863.0,WeatherDisplay:10.37,2013-06-06 12:26:00,
2013-06-06 14:31:00,73.1,54.4,30.11,ENE,72,8.5,11.0,52,0.00,FEW,,0.00,860.0,WeatherDisplay:10.37,2013-06-06 12:31:00,
2013-06-06 14:36:00,73.0,54.3,30.11,NNE,23,9.3,13.8,52,0.00,FEW,,0.00,863.0,WeatherDisplay:10.37,2013-06-06 12:36:00,
2013-06-06 14:41:00,73.1,54.4,30.11,North,7,6.5,11.5,52,0.00,FEW,,0.00,861.0,WeatherDisplay:10.37,2013-06-06 12:41:00,
2013-06-06 14:46:00,73.2,54.5,30.11,NNE,26,3.6,6.9,52,0.00,FEW,,0.00,849.0,WeatherDisplay:10.37,2013-06-06 12:46:00,
2013-06-06 14:51:00,73.9,55.1,30.11,NE,36,5.9,8.1,52,0.00,FEW,,0.00,844.0,WeatherDisplay:10.37,2013-06-06 12:51:00,
2013-06-06 14:56:00,73.9,54.1,30.11,NE,53,10.6,15.0,50,0.00,FEW,,0.00,840.0,WeatherDisplay:10.37,2013-06-06 12:56:00,
2013-06-06 15:01:00,73.4,54.7,30.11,ENE,78,2.8,11.5,52,0.00,FEW,,0.00,833.0,WeatherDisplay:10.37,2013-06-06 13:01:00,
2013-06-06 15:06:00,74.0,54.7,30.11,NNE,25,4.6,9.2,51,0.00,FEW,,0.00,831.0,WeatherDisplay:10.37,2013-06-06 13:06:00,
2013-06-06 15:11:00,74.2,54.3,30.11,NNE,32,6.6,11.5,50,0.00,FEW,,0.00,837.0,WeatherDisplay:10.37,2013-06-06 13:11:00,
2013-06-06 15:16:00,74.0,54.2,30.11,ENE,62,7.3,14.0,50,0.00,FEW,,0.00,817.0,WeatherDisplay:10.37,2013-06-06 13:16:00,
2013-06-06 15:21:00,73.9,54.6,30.11,North,11,2.7,6.0,51,0.00,FEW,,0.00,819.0,WeatherDisplay:10.37,2013-06-06 13:21:00,
2013-06-06 15:26:00,74.1,54.8,30.10,ENE,74,7.7,11.5,51,0.00,FEW,,0.00,789.0,WeatherDisplay:10.37,2013-06-06 13:26:00,
2013-06-06 15:31:00,74.1,54.3,30.10,North,10,5.4,10.4,50,0.00,FEW,,0.00,795.0,WeatherDisplay:10.37,2013-06-06 13:31:00,
2013-06-06 15:36:00,74.2,54.3,30.10,North,11,6.6,12.7,50,0.00,FEW,,0.00,789.0,WeatherDisplay:10.37,2013-06-06 13:36:00,
2013-06-06 15:41:00,74.4,54.0,30.10,ENE,58,8.3,11.5,49,0.00,FEW,,0.00,795.0,WeatherDisplay:10.37,2013-06-06 13:41:00,
2013-06-06 15:46:00,74.3,55.0,30.10,NE,38,4.7,8.1,51,0.00,FEW,,0.00,793.0,WeatherDisplay:10.37,2013-06-06 13:46:00,
2013-06-06 15:51:00,74.7,54.8,30.10,NNE,30,7.3,11.5,50,0.00,FEW,,0.00,756.0,WeatherDisplay:10.37,2013-06-06 13:51:00,
2013-06-06 15:56:00,74.4,54.0,30.10,ENE,61,6.7,11.5,49,0.00,FEW,,0.00,754.0,WeatherDisplay:10.37,2013-06-06 13:56:00,
2013-06-06 16:01:00,74.1,54.3,30.10,North,1,5.0,10.4,50,0.00,FEW,,0.00,758.0,WeatherDisplay:10.37,2013-06-06 14:01:00,
2013-06-06 16:06:00,74.5,53.5,30.10,North,1,5.8,11.5,48,0.00,FEW,,0.00,717.0,WeatherDisplay:10.37,2013-06-06 14:06:00,
2013-06-06 16:11:00,74.4,54.0,30.10,ENE,73,6.4,8.0,49,0.00,FEW,,0.00,722.0,WeatherDisplay:10.37,2013-06-06 14:11:00,
2013-06-06 16:16:00,74.4,53.4,30.10,NE,42,6.8,11.5,48,0.00,FEW,,0.00,691.0,WeatherDisplay:10.37,2013-06-06 14:16:00,
2013-06-06 16:21:00,74.5,54.6,30.10,North,351,6.4,10.4,50,0.00,FEW,,0.00,652.0,WeatherDisplay:10.37,2013-06-06 14:21:00,
2013-06-06 16:26:00,74.9,53.9,30.10,NNW,339,7.2,11.5,48,0.00,FEW,,0.00,643.0,WeatherDisplay:10.37,2013-06-06 14:26:00,
2013-06-06 16:31:00,74.8,54.3,30.10,NNE,15,5.6,8.1,49,0.00,FEW,,0.00,642.0,WeatherDisplay:10.37,2013-06-06 14:31:00,
2013-06-06 16:36:00,74.7,54.2,30.10,NNE,20,5.8,9.2,49,0.00,FEW,,0.00,635.0,WeatherDisplay:10.37,2013-06-06 14:36:00,
2013-06-06 16:41:00,74.9,54.4,30.10,North,1,2.2,9.2,49,0.00,FEW,,0.00,645.0,WeatherDisplay:10.37,2013-06-06 14:41:00,
2013-06-06 16:46:00,75.0,54.0,30.10,NE,45,4.0,5.8,48,0.00,FEW,,0.00,631.0,WeatherDisplay:10.37,2013-06-06 14:46:00,
2013-06-06 16:51:00,75.0,54.5,30.10,North,5,4.0,6.9,49,0.00,FEW,,0.00,608.0,WeatherDisplay:10.37,2013-06-06 14:51:00,
2013-06-06 16:56:00,74.8,53.8,30.10,North,9,5.8,10.4,48,0.00,FEW,,0.00,605.0,WeatherDisplay:10.37,2013-06-06 14:56:00,
2013-06-06 17:01:00,74.8,53.8,30.10,NNE,25,5.6,9.2,48,0.00,FEW,,0.00,621.0,WeatherDisplay:10.37,2013-06-06 15:01:00,
2013-06-06 17:06:00,75.0,55.1,30.10,North,11,4.8,8.1,50,0.00,FEW,,0.00,624.0,WeatherDisplay:10.37,2013-06-06 15:06:00,
2013-06-06 17:11:00,75.2,56.9,30.10,North,356,3.2,6.9,53,0.00,FEW,,0.00,612.0,WeatherDisplay:10.37,2013-06-06 15:11:00,
2013-06-06 17:16:00,75.0,56.2,30.09,NNW,339,5.9,8.1,52,0.00,FEW,,0.00,612.0,WeatherDisplay:10.37,2013-06-06 15:16:00,
2013-06-06 17:21:00,75.1,56.8,30.09,NNE,25,7.2,7.2,53,0.00,FEW,,0.00,578.0,WeatherDisplay:10.37,2013-06-06 15:21:00,
2013-06-06 17:26:00,75.0,57.2,30.09,NNE,23,6.8,12.7,54,0.00,FEW,,0.00,575.0,WeatherDisplay:10.37,2013-06-06 15:26:00,
2013-06-06 17:31:00,75.3,57.5,30.09,NNE,14,3.5,8.1,54,0.00,FEW,,0.00,578.0,WeatherDisplay:10.37,2013-06-06 15:31:00,
2013-06-06 17:36:00,75.1,57.3,30.09,North,356,8.3,10.0,54,0.00,FEW,,0.00,564.0,WeatherDisplay:10.37,2013-06-06 15:36:00,
2013-06-06 17:41:00,74.9,56.6,30.09,NNW,338,6.4,8.1,53,0.00,FEW,,0.00,541.0,WeatherDisplay:10.37,2013-06-06 15:41:00,
2013-06-06 17:46:00,74.7,56.4,30.09,North,1,6.8,9.0,53,0.00,FEW,,0.00,538.0,WeatherDisplay:10.37,2013-06-06 15:46:00,
2013-06-06 17:51:00,74.1,56.9,30.09,North,5,7.0,9.2,55,0.00,FEW,,0.00,515.0,WeatherDisplay:10.37,2013-06-06 15:51:00,
2013-06-06 17:56:00,74.2,57.0,30.09,North,9,7.6,12.7,55,0.00,FEW,,0.00,499.0,WeatherDisplay:10.37,2013-06-06 15:56:00,
2013-06-06 18:01:00,73.6,56.9,30.09,NNW,334,7.0,9.2,56,0.00,FEW,,0.00,490.0,WeatherDisplay:10.37,2013-06-06 16:01:00,
2013-06-06 18:06:00,73.8,57.6,30.09,North,1,6.7,6.7,57,0.00,FEW,,0.00,466.0,WeatherDisplay:10.37,2013-06-06 16:06:00,
2013-06-06 18:11:00,73.3,57.1,30.09,NNE,26,6.2,9.2,57,0.00,FEW,,0.00,457.0,WeatherDisplay:10.37,2013-06-06 16:11:00,
2013-06-06 18:16:00,73.4,57.2,30.09,NNE,15,3.5,5.8,57,0.00,FEW,,0.00,443.0,WeatherDisplay:10.37,2013-06-06 16:16:00,
2013-06-06 18:21:00,73.2,57.0,30.09,NNE,28,5.1,8.1,57,0.00,FEW,,0.00,432.0,WeatherDisplay:10.37,2013-06-06 16:21:00,
2013-06-06 18:26:00,73.0,57.3,30.09,NNW,347,7.1,9.2,58,0.00,FEW,,0.00,422.0,WeatherDisplay:10.37,2013-06-06 16:26:00,
2013-06-06 18:31:00,73.2,57.0,30.09,North,351,8.3,10.4,57,0.00,FEW,,0.00,404.0,WeatherDisplay:10.37,2013-06-06 16:31:00,
2013-06-06 18:36:00,72.6,57.0,30.09,North,1,6.0,8.1,58,0.00,FEW,,0.00,387.0,WeatherDisplay:10.37,2013-06-06 16:36:00,
2013-06-06 18:41:00,72.7,57.0,30.09,North,356,5.3,9.2,58,0.00,FEW,,0.00,378.0,WeatherDisplay:10.37,2013-06-06 16:41:00,
2013-06-06 18:46:00,72.7,57.0,30.09,NNW,332,6.9,9.2,58,0.00,FEW,,0.00,367.0,WeatherDisplay:10.37,2013-06-06 16:46:00,
2013-06-06 18:51:00,72.5,56.9,30.09,North,1,7.0,11.5,58,0.00,FEW,,0.00,350.0,WeatherDisplay:10.37,2013-06-06 16:51:00,
2013-06-06 18:56:00,72.0,56.9,30.09,NNW,335,6.3,11.5,59,0.00,FEW,,0.00,339.0,WeatherDisplay:10.37,2013-06-06 16:56:00,
2013-06-06 19:01:00,71.7,56.6,30.09,NNW,334,5.4,9.2,59,0.00,FEW,,0.00,325.0,WeatherDisplay:10.37,2013-06-06 17:01:00,
2013-06-06 19:06:00,71.6,57.0,30.10,NNW,336,7.0,10.4,60,0.00,FEW,,0.00,309.0,WeatherDisplay:10.37,2013-06-06 17:06:00,
2013-06-06 19:11:00,71.4,56.8,30.09,NNW,346,4.7,10.0,60,0.00,FEW,,0.00,306.0,WeatherDisplay:10.37,2013-06-06 17:11:00,
2013-06-06 19:16:00,71.3,56.7,30.10,North,351,6.0,8.1,60,0.00,FEW,,0.00,288.0,WeatherDisplay:10.37,2013-06-06 17:16:00,
2013-06-06 19:21:00,71.2,56.6,30.09,North,351,6.3,8.1,60,0.00,FEW,,0.00,272.0,WeatherDisplay:10.37,2013-06-06 17:21:00,
2013-06-06 19:26:00,70.9,56.8,30.09,NNW,340,5.9,10.4,61,0.00,FEW,,0.00,264.0,WeatherDisplay:10.37,2013-06-06 17:26:00,
2013-06-06 19:31:00,70.6,56.9,30.09,North,351,5.4,8.1,62,0.00,FEW,,0.00,253.0,WeatherDisplay:10.37,2013-06-06 17:31:00,
2013-06-06 19:36:00,70.5,56.8,30.10,North,351,6.1,11.5,62,0.00,FEW,,0.00,234.0,WeatherDisplay:10.37,2013-06-06 17:36:00,
2013-06-06 19:41:00,70.2,57.0,30.09,NNW,329,5.9,8.1,63,0.00,FEW,,0.00,221.0,WeatherDisplay:10.37,2013-06-06 17:41:00,
2013-06-06 19:46:00,70.0,56.8,30.10,North,1,6.2,10.0,63,0.00,FEW,,0.00,209.0,WeatherDisplay:10.37,2013-06-06 17:46:00,
2013-06-06 19:51:00,69.8,57.1,30.10,NW,318,2.5,7.0,64,0.00,FEW,,0.00,197.0,WeatherDisplay:10.37,2013-06-06 17:51:00,
2013-06-06 19:56:00,69.8,57.1,30.10,North,356,4.5,6.9,64,0.00,FEW,,0.00,176.0,WeatherDisplay:10.37,2013-06-06 17:56:00,
2013-06-06 20:01:00,69.8,57.1,30.10,NNE,17,5.7,7.0,64,0.00,BKN,,0.00,81.0,WeatherDisplay:10.37,2013-06-06 18:01:00,
2013-06-06 20:06:00,69.6,57.3,30.10,NNE,19,6.0,6.0,65,0.00,SCT,,0.00,132.0,WeatherDisplay:10.37,2013-06-06 18:06:00,
2013-06-06 20:11:00,69.5,57.2,30.10,NNE,13,5.1,9.2,65,0.00,FEW,,0.00,141.0,WeatherDisplay:10.37,2013-06-06 18:11:00,
2013-06-06 20:16:00,69.1,57.2,30.10,North,351,6.4,8.1,66,0.00,FEW,,0.00,130.0,WeatherDisplay:10.37,2013-06-06 18:16:00,
2013-06-06 20:21:00,68.7,56.9,30.10,NNE,15,4.6,9.2,66,0.00,FEW,,0.00,120.0,WeatherDisplay:10.37,2013-06-06 18:21:00,
2013-06-06 20:26:00,68.5,57.1,30.11,North,351,5.5,8.1,67,0.00,FEW,,0.00,109.0,WeatherDisplay:10.37,2013-06-06 18:26:00,
2013-06-06 20:31:00,68.2,57.2,30.11,North,351,5.3,6.9,68,0.00,FEW,,0.00,98.0,WeatherDisplay:10.37,2013-06-06 18:31:00,
2013-06-06 20:36:00,68.0,57.0,30.10,North,351,6.1,10.4,68,0.00,FEW,,0.00,83.0,WeatherDisplay:10.37,2013-06-06 18:36:00,
2013-06-06 20:41:00,67.9,56.9,30.11,North,10,3.7,7.0,68,0.00,FEW,,0.00,72.0,WeatherDisplay:10.37,2013-06-06 18:41:00,
2013-06-06 20:46:00,67.7,57.1,30.11,North,1,4.2,8.1,69,0.00,FEW,,0.00,46.0,WeatherDisplay:10.37,2013-06-06 18:46:00,
2013-06-06 20:51:00,67.4,56.9,30.11,North,7,3.2,5.8,69,0.00,FEW,,0.00,46.0,WeatherDisplay:10.37,2013-06-06 18:51:00,
2013-06-06 20:56:00,67.0,56.5,30.11,North,10,3.3,4.6,69,0.00,FEW,,0.00,42.0,WeatherDisplay:10.37,2013-06-06 18:56:00,
2013-06-06 21:01:00,66.7,56.6,30.11,North,9,3.8,6.9,70,0.00,FEW,,0.00,47.0,WeatherDisplay:10.37,2013-06-06 19:01:00,
2013-06-06 21:06:00,66.2,56.1,30.11,NNE,18,4.1,5.0,70,0.00,FEW,,0.00,40.0,WeatherDisplay:10.37,2013-06-06 19:06:00,
2013-06-06 21:11:00,65.7,56.0,30.11,North,356,4.4,6.9,71,0.00,FEW,,0.00,33.0,WeatherDisplay:10.37,2013-06-06 19:11:00,
2013-06-06 21:16:00,65.4,56.1,30.11,North,356,2.6,5.8,72,0.00,FEW,,0.00,30.0,WeatherDisplay:10.37,2013-06-06 19:16:00,
2013-06-06 21:21:00,65.0,56.1,30.11,North,5,4.3,4.6,73,0.00,FEW,,0.00,25.0,WeatherDisplay:10.37,2013-06-06 19:21:00,
2013-06-06 21:29:00,64.4,55.9,30.11,North,5,6.8,8.1,74,0.00,CLR,,0.00,19.0,WeatherDisplay:10.37,2013-06-06 19:29:00,
2013-06-06 21:34:00,64.2,55.7,30.12,NNE,18,2.2,3.5,74,0.00,CLR,,0.00,16.0,WeatherDisplay:10.37,2013-06-06 19:34:00,
2013-06-06 21:39:00,64.0,55.5,30.12,North,10,6.6,10.4,74,0.00,CLR,,0.00,12.0,WeatherDisplay:10.37,2013-06-06 19:39:00,
2013-06-06 21:44:00,63.6,55.5,30.12,NNE,22,5.3,9.2,75,0.00,CLR,,0.00,11.0,WeatherDisplay:10.37,2013-06-06 19:44:00,
2013-06-06 21:49:00,63.4,55.7,30.12,North,11,7.4,10.4,76,0.00,CLR,,0.00,9.0,WeatherDisplay:10.37,2013-06-06 19:49:00,
2013-06-06 21:54:00,63.1,55.4,30.12,NNW,336,2.2,4.6,76,0.00,CLR,,0.00,7.0,WeatherDisplay:10.37,2013-06-06 19:54:00,
2013-06-06 21:59:00,62.8,55.5,30.12,North,10,2.5,6.0,77,0.00,CLR,,0.00,5.0,WeatherDisplay:10.37,2013-06-06 19:59:00,
2013-06-06 22:04:00,62.5,55.2,30.12,NNE,26,4.6,6.9,77,0.00,CLR,,0.00,0.0,WeatherDisplay:10.37,2013-06-06 20:04:00,
2013-06-06 22:09:00,62.2,54.9,30.12,North,1,3.9,6.9,77,0.00,CLR,,0.00,0.0,WeatherDisplay:10.37,2013-06-06 20:09:00,
2013-06-06 22:14:00,62.0,55.0,30.13,North,5,4.2,5.8,78,0.00,CLR,,0.00,0.0,WeatherDisplay:10.37,2013-06-06 20:14:00,
2013-06-06 22:19:00,61.9,54.9,30.13,North,5,4.4,5.8,78,0.00,CLR,,0.00,0.0,WeatherDisplay:10.37,2013-06-06 20:19:00,
2013-06-06 22:24:00,61.8,55.2,30.13,NNE,30,3.2,4.6,79,0.00,CLR,,0.00,0.0,WeatherDisplay:10.37,2013-06-06 20:24:00,
2013-06-06 22:29:00,61.7,55.1,30.13,North,7,3.2,8.1,79,0.00,CLR,,0.00,0.0,WeatherDisplay:10.37,2013-06-06 20:29:00,
2013-06-06 22:34:00,61.5,54.9,30.13,North,1,4.8,8.1,79,0.00,CLR,,0.00,0.0,WeatherDisplay:10.37,2013-06-06 20:34:00,
2013-06-06 22:39:00,61.3,55.1,30.13,North,5,2.6,4.6,80,0.00,CLR,,0.00,0.0,WeatherDisplay:10.37,2013-06-06 20:39:00,
2013-06-06 22:44:00,61.2,55.0,30.13,North,5,0.9,3.5,80,0.00,CLR,,0.00,0.0,WeatherDisplay:10.37,2013-06-06 20:44:00,
2013-06-06 22:49:00,61.0,54.8,30.14,North,5,2.7,3.5,80,0.00,CLR,,0.00,0.0,WeatherDisplay:10.37,2013-06-06 20:49:00,
2013-06-06 22:54:00,60.8,54.9,30.13,North,5,4.2,5.8,81,0.00,CLR,,0.00,0.0,WeatherDisplay:10.37,2013-06-06 20:54:00,
2013-06-06 22:59:00,60.6,54.7,30.13,North,5,3.5,4.0,81,0.00,CLR,,0.00,0.0,WeatherDisplay:10.37,2013-06-06 20:59:00,
2013-06-06 23:04:00,60.5,54.6,30.13,North,5,0.0,0.0,81,0.00,CLR,,0.00,0.0,WeatherDisplay:10.37,2013-06-06 21:04:00,
2013-06-06 23:09:00,60.4,54.9,30.13,North,5,0.6,4.0,82,0.00,CLR,,0.00,0.0,WeatherDisplay:10.37,2013-06-06 21:09:00,
2013-06-06 23:14:00,60.2,54.7,30.14,NNE,14,0.0,0.0,82,0.00,CLR,,0.00,0.0,WeatherDisplay:10.37,2013-06-06 21:14:00,
2013-06-06 23:19:00,60.2,54.7,30.14,NE,34,2.4,6.0,82,0.00,CLR,,0.00,0.0,WeatherDisplay:10.37,2013-06-06 21:19:00,
2013-06-06 23:24:00,60.1,54.6,30.14,NE,45,3.4,5.8,82,0.00,CLR,,0.00,0.0,WeatherDisplay:10.37,2013-06-06 21:24:00,
2013-06-06 23:29:00,60.0,54.5,30.14,NE,45,5.5,10.4,82,0.00,CLR,,0.00,0.0,WeatherDisplay:10.37,2013-06-06 21:29:00,
2013-06-06 23:34:00,59.9,54.4,30.14,NE,44,3.2,11.0,82,0.00,CLR,,0.00,0.0,WeatherDisplay:10.37,2013-06-06 21:34:00,
2013-06-06 23:39:00,59.7,53.8,30.14,ENE,59,7.9,13.8,81,0.00,CLR,,0.00,0.0,WeatherDisplay:10.37,2013-06-06 21:39:00,
2013-06-06 23:44:00,59.6,53.7,30.14,NE,44,4.7,8.1,81,0.00,CLR,,0.00,0.0,WeatherDisplay:10.37,2013-06-06 21:44:00,
2013-06-06 23:49:00,59.4,53.5,30.14,NE,45,3.6,10.4,81,0.00,CLR,,0.00,0.0,WeatherDisplay:10.37,2013-06-06 21:49:00,
2013-06-06 23:54:00,59.3,53.4,30.14,ENE,60,5.8,9.2,81,0.00,CLR,,0.00,0.0,WeatherDisplay:10.37,2013-06-06 21:54:00,
2013-06-06 23:59:00,59.1,53.3,30.14,ENE,75,4.9,10.4,81,0.00,CLR,,0.00,0.0,WeatherDisplay:10.37,2013-06-06 21:59:00,